Home   Weather   Philipsburg   Past weeks
Flag for Sint Maarten

Past Weather in Philipsburg, Sint Maarten — Yesterday and Last 2 Weeks

Now
90 °F

Scattered clouds.


Feels Like: 98 °F
Forecast: 87 / 81 °F
Wind: 10 mph from East

Location: Juliana Airport - Saint Maarten

Current Time: Jul 20, 2019 at 2:26:09 pm

Latest Report: Jul 20, 2019 at 1:00 pm


Visibility: N/A

Pressure: 30.04 "Hg

Humidity: 59%

Dew Point: 73 °F

Location of PhilipsburgLocation

Past Weather in Philipsburg — Graph

°F

Philipsburg Temperature Yesterday

Maximum temperature yesterday: 90 °F (at 12:00 pm)
Minimum temperature yesterday: 81 °F (at 3:00 am)
Average temperature yesterday: 84 °F

High & Low Weather Summary for the Past Weeks

 TemperatureHumidityPressure
High90 °F (Jul 6, 1:00 pm)89% (Jul 8, 6:29 pm)30.15 "Hg (Jul 8, 6:29 pm)
Low81 °F (Jul 6, 5:00 am)52% (Jul 6, 2:00 pm)29.86 "Hg (Jul 5, 7:00 pm)
Average84 °F71%30.06 "Hg
* Reported Jul 5 1:00 pm — Jul 20 1:00 pm, Philipsburg. Weather by CustomWeather, © 2019

Note: Actual official high and low records may vary slightly from our data, if they occured in-between our weather recording intervals... More about our weather records

Advertising

Philipsburg Weather History for the Previous 24 Hours

Scroll right to see more
 ConditionsComfort  
Time TempWeatherWind HumidityBarometerVisibility
1:00 pm
Sat, Jul 20
90 °FScattered clouds.10 mph59%30.04 "HgN/A
12:00 pm90 °FScattered clouds.10 mph55%30.07 "HgN/A
11:00 am88 °FScattered clouds.10 mph59%30.07 "HgN/A
10:00 am88 °FScattered clouds.10 mph59%30.07 "HgN/A
9:00 am86 °FScattered clouds.10 mph66%30.07 "HgN/A
8:00 am84 °FPassing clouds.12 mph70%30.04 "HgN/A
7:00 am84 °FPassing clouds.10 mph66%30.04 "HgN/A
6:00 am82 °FPassing clouds.8 mph74%30.01 "HgN/A
5:00 am82 °FPassing clouds.9 mph79%30.01 "HgN/A
4:00 am82 °FPassing clouds.9 mph79%30.01 "HgN/A
3:00 am82 °FPassing clouds.10 mph79%30.01 "HgN/A
2:00 am82 °FPassing clouds.7 mph79%30.01 "HgN/A
1:00 am82 °FPassing clouds.7 mph79%30.04 "HgN/A
12:00 am82 °FPassing clouds.7 mph79%30.07 "HgN/A
11:00 pm
Fri, Jul 19
82 °FPassing clouds.7 mph79%30.07 "HgN/A
10:00 pm82 °FPassing clouds.6 mph79%30.07 "HgN/A
9:00 pm82 °FPassing clouds.7 mph79%30.07 "HgN/A
8:00 pm84 °FPassing clouds.6 mph74%30.07 "HgN/A
7:00 pm84 °FPassing clouds.7 mph74%30.04 "HgN/A
6:00 pm84 °FScattered clouds.8 mph74%30.04 "HgN/A
5:00 pm86 °FScattered clouds.8 mph70%30.04 "HgN/A
4:00 pm86 °FScattered showers. Scattered clouds.8 mph79%30.04 "HgN/A
3:00 pm86 °FPartly sunny.8 mph70%30.04 "HgN/A
2:00 pm88 °FScattered clouds.9 mph66%30.07 "HgN/A
Weather by CustomWeather, © 2019

See weather overview